DW4691 Weather Reports


Display with metric or nautical units.
time (UTC)temp
F
wind
direction
speed
MPH
gust
MPH
rain 1hr
in
rain 24hr
in
rain mn
in
humidity
%
barometer
mb
20210920211721 95 306 0.0 0.0 0.00 0.00 0.00 53 1010.7
20210920210118 95 142 0.0 0.0 0.00 0.00 0.00 54 1010.8
20210920204641 94 325 0.0 0.0 0.00 0.00 0.00 55 1010.9
20210920203225 95 294 0.0 0.0 0.00 0.00 0.00 55 1011.1
20210920201613 94 190 0.0 0.0 0.00 0.00 0.00 60 1011.2
20210920200115 94 159 0.0 0.0 0.00 0.00 0.00 58 1011.5
20210920194646 93 100 0.0 0.0 0.00 0.00 0.00 58 1011.8
20210920193105 93 148 0.0 0.0 0.00 0.00 0.00 59 1011.7
20210920191622 93 142 0.0 0.0 0.00 0.00 0.00 63 1012.0
20210920190125 92 283 0.0 0.0 0.00 0.00 0.00 60 1012.1
20210920184546 91 262 0.0 0.0 0.00 0.00 0.00 62 1012.3
20210920183048 91 282 0.0 0.0 0.00 0.00 0.00 64 1012.5
20210920181605 91 254 0.0 0.0 0.00 0.00 0.00 63 1012.7
20210920180125 90 234 0.0 0.0 0.00 0.00 0.00 67 1012.8
20210920174559 89 316 0.0 0.0 0.00 0.00 0.00 67 1012.8
20210920173101 89 115 1.0 0.0 0.00 0.00 0.00 70 1013.1
20210920171545 89 270 0.0 0.0 0.00 0.00 0.00 69 1013.1
20210920170050 88 159 0.0 0.0 0.00 0.00 0.00 74 1013.2
20210920164536 87 281 0.0 0.0 0.00 0.00 0.00 73 1013.4
20210920163039 86 61 0.0 0.0 0.00 0.00 0.00 77 1013.4
20210920161605 85 299 0.0 0.0 0.00 0.00 0.00 78 1013.5
20210920160107 85 296 0.0 0.0 0.00 0.00 0.00 78 1013.4
20210920154525 85 325 0.0 0.0 0.00 0.00 0.00 80 1013.6
20210920153016 84 88 0.0 0.0 0.00 0.00 0.00 83 1013.6
20210920151513 82 315 0.0 0.0 0.00 0.00 0.00 86 1013.4
20210920150015 82 342 0.0 0.0 0.00 0.00 0.00 89 1013.3
20210920144503 80 316 0.0 0.0 0.00 0.00 0.00 91 1013.3
20210920143111 79 315 0.0 0.0 0.00 0.00 0.00 93 1013.1
20210920141808 78 140 0.0 0.0 0.00 0.00 0.00 94 1013.1
20210920140331 77 138 0.0 0.0 0.00 0.00 0.00 94 1013.0
20210920134657 75 153 0.0 0.0 0.00 0.00 0.00 95 1012.9
20210920133135 74 153 0.0 0.0 0.00 0.00 0.00 94 1012.8
20210920131701 73 153 0.0 0.0 0.00 0.00 0.00 94 1012.7
20210920130121 73 153 0.0 0.0 0.00 0.00 0.00 94 1012.6
20210920124616 73 153 0.0 0.0 0.00 0.00 0.00 94 1012.5
20210920123206 73 153 0.0 0.0 0.00 0.00 0.00 94 1012.4
20210920121645 73 153 0.0 0.0 0.00 0.00 0.00 94 1012.2
20210920120117 72 153 0.0 0.0 0.00 0.00 0.00 93 1012.0
20210920114558 73 153 0.0 0.0 0.00 0.00 0.00 93 1011.8
20210920113145 73 153 0.0 0.0 0.00 0.00 0.00 93 1011.8
20210920111639 73 153 0.0 0.0 0.00 0.00 0.00 93 1011.7
20210920110118 73 153 0.0 0.0 0.00 0.00 0.00 93 1011.8
20210920104627 73 153 0.0 0.0 0.00 0.00 0.00 93 1011.7
20210920103104 73 153 0.0 0.0 0.00 0.00 0.00 93 1011.5
20210920101547 73 153 0.0 0.0 0.00 0.00 0.00 93 1011.6
20210920100112 73 153 0.0 0.0 0.00 0.00 0.00 93 1011.5
20210920094544 74 153 0.0 0.0 0.00 0.00 0.00 93 1011.4
20210920093036 74 153 0.0 0.0 0.00 0.00 0.00 92 1011.3
20210920091535 74 153 0.0 0.0 0.00 0.00 0.00 93 1011.3
20210920090125 74 153 0.0 0.0 0.00 0.00 0.00 92 1011.5
20210920084546 74 153 0.0 0.0 0.00 0.00 0.00 92 1011.6
20210920083036 74 153 0.0 0.0 0.00 0.00 0.00 92 1011.8
20210920081537 74 153 0.0 0.0 0.00 0.00 0.00 92 1011.8
20210920080036 74 153 0.0 0.0 0.00 0.00 0.00 92 1011.9
20210920074536 75 153 0.0 0.0 0.00 0.00 0.00 91 1012.1
20210920073042 75 153 0.0 0.0 0.00 0.00 0.00 91 1012.1
20210920071523 75 153 0.0 0.0 0.00 0.00 0.00 91 1012.2
20210920070023 75 153 0.0 0.0 0.00 0.00 0.00 91 1012.2
20210920064525 76 153 0.0 0.0 0.00 0.00 0.00 91 1012.2
20210920063034 76 153 0.0 0.0 0.00 0.00 0.00 90 1012.2
20210920061536 76 153 0.0 0.0 0.00 0.00 0.00 90 1012.1
20210920060052 76 153 0.0 0.0 0.00 0.00 0.00 90 1012.0
20210920054558 77 153 0.0 0.0 0.00 0.00 0.00 89 1012.0
20210920053013 77 153 0.0 0.0 0.00 0.00 0.00 89 1012.2
20210920051512 77 153 0.0 0.0 0.00 0.00 0.00 88 1012.2
20210920050028 77 153 0.0 0.0 0.00 0.00 0.00 88 1012.1
20210920044510 78 153 0.0 0.0 0.00 0.00 0.01 87 1012.3
20210920043032 78 153 0.0 0.0 0.00 0.00 0.01 86 1012.1
20210920041513 79 153 0.0 0.0 0.00 0.00 0.01 86 1012.2
20210920040030 79 153 0.0 0.0 0.00 0.00 0.01 85 1012.3
20210920034528 79 153 0.0 0.0 0.00 0.00 0.01 85 1012.2
20210920033007 80 153 0.0 0.0 0.00 0.00 0.01 85 1012.3
20210920031514 80 156 0.0 0.0 0.00 0.00 0.01 84 1012.0
20210920030024 80 157 0.0 0.0 0.00 0.00 0.01 84 1012.1
20210920024524 80 153 0.0 0.0 0.00 0.00 0.01 84 1011.9
20210920023009 80 153 0.0 0.0 0.00 0.00 0.01 84 1011.7
20210920021506 80 153 0.0 0.0 0.00 0.00 0.01 84 1011.4
20210920020006 80 153 0.0 0.0 0.00 0.00 0.01 84 1011.3
20210920014508 80 75 0.0 0.0 0.00 0.00 0.01 83 1010.9
20210920013006 80 75 0.0 0.0 0.00 0.00 0.01 82 1010.8
20210920011507 81 75 0.0 0.0 0.00 0.00 0.01 81 1010.7
20210920010004 82 75 0.0 0.0 0.00 0.00 0.01 79 1010.5
20210920004521 83 75 0.0 0.0 0.00 0.00 0.01 77 1010.2
20210920003005 84 75 0.0 0.0 0.00 0.00 0.01 77 1010.3
20210920001500 85 75 0.0 0.0 0.00 0.00 0.01 75 1010.3
20210920000123 86 75 0.0 0.0 0.00 0.00 0.01 73 1010.2
20210919234614 87 75 0.0 0.0 0.00 0.00 0.01 70 1010.2
20210919233132 88 75 0.0 0.0 0.00 0.00 0.01 69 1010.1
20210919231631 89 75 0.0 0.0 0.00 0.00 0.01 64 1010.0
20210919230212 90 75 0.0 0.0 0.00 0.00 0.01 63 1010.1
20210919224648 90 75 0.0 0.0 0.00 0.00 0.01 63 1010.1
20210919223311 90 75 0.0 0.0 0.00 0.00 0.01 61 1010.2
20210919221817 90 75 0.0 0.0 0.00 0.00 0.01 62 1010.2
20210919220104 89 74 0.0 0.0 0.00 0.00 0.01 64 1010.2
20210919214642 89 74 0.0 0.0 0.00 0.00 0.01 67 1010.2
20210919213118 88 74 0.0 0.0 0.00 0.00 0.01 72 1010.4